Home   Weather   Wilhelmshaven   Past weeks

Flag for Germany Past Weather in Wilhelmshaven, Lower Saxony, Germany — Yesterday and Last 2 Weeks

55 °F

Passing clouds.

Feels Like: 52 °F
Forecast: 51 / 57 °F
Wind: 13 mph from Southwest

Location: Wittmundhaven

Current Time: Oct 27, 2016 at 7:02:41 PM

Latest Report: Oct 27, 2016 at 6:20 PM

Visibility: 6 mi

Pressure: 30.36 "Hg

Humidity: 88%

Dew Point: 52 °F

Location of WilhelmshavenLocation

Past Weather in Wilhelmshaven — Graph


Wilhelmshaven Temperature Yesterday

Maximum temperature yesterday: 50 °F (at 3:20 PM)
Minimum temperature yesterday: 32 °F (at 3:20 AM)
Average temperature yesterday: 41 °F

High & Low Weather Summary for the Past Weeks

High61 °F (Oct 16, 2:20 PM)100% (Oct 15, 4:20 PM)30.39 "Hg (Oct 15, 4:20 PM)
Low32 °F (Oct 26, 3:20 AM)63% (Oct 16, 2:20 PM)29.74 "Hg (Oct 15, 3:20 AM)
Average47 °F91%30.06 "Hg
* Reported Oct 12 5:20 PM — Oct 27 5:20 PM, Wilhelmshaven, Weather by CustomWeather, © 2016

Note: Actual official high and low records may vary slightly from our data, if they occured in-between our weather recording intervals... More about our weather records


Wilhelmshaven Weather History for the Previous 24 Hours

Scroll right to see more
Time TempWeatherWind HumidityBarometerVisibility
5:20 PM
Thu, Oct 27
55 °FPartly sunny.10 mph88%30.36 "HgN/A
4:20 PM55 °FPartly sunny.10 mph88%30.36 "HgN/A
3:20 PM55 °FDrizzle. Partly sunny.10 mph88%30.39 "Hg6 mi
2:20 PM57 °FPartly sunny.10 mph82%30.39 "Hg6 mi
2:01 PM57 °FPartly sunny.12 mph82%30.39 "Hg5 mi
1:20 PM55 °FBroken clouds.8 mph88%30.39 "Hg4 mi
1:00 PM55 °FBroken clouds.15 mph88%30.39 "Hg4 mi
12:20 PM55 °FFog.9 mph94%30.39 "Hg2 mi
11:20 AM54 °FFog.8 mph94%30.39 "Hg2 mi
10:20 AM54 °FFog.8 mph94%30.39 "Hg2 mi
9:56 AM52 °FFog.7 mph100%30.36 "Hg2 mi
9:20 AM52 °FFog.8 mph94%30.36 "Hg1 mi
9:01 AM52 °FFog.8 mph94%30.36 "Hg1 mi
8:20 AM52 °FFog.8 mph94%30.36 "Hg2 mi
7:57 AM50 °FFog.7 mph100%30.36 "Hg1 mi
7:45 AM50 °FFog.6 mph100%30.36 "Hg2 mi
7:20 AM52 °FFog.6 mph94%30.33 "Hg2 mi
6:20 AM52 °FFog.7 mph94%30.33 "Hg2 mi
5:20 AM52 °FFog.7 mph94%30.33 "Hg2 mi
4:20 AM52 °FFog.7 mph94%30.33 "Hg2 mi
3:54 AM50 °FFog.8 mph100%30.33 "Hg2 mi
3:20 AM50 °FFog.8 mph100%30.33 "Hg2 mi
2:20 AM50 °FFog.8 mph100%30.33 "Hg2 mi
1:20 AM50 °FFog.9 mph94%30.33 "Hg2 mi
12:20 AM50 °FDrizzle. Fog.10 mph94%30.33 "Hg2 mi
11:20 PM
Wed, Oct 26
50 °FFog.10 mph88%30.33 "Hg3 mi
10:20 PM48 °FPassing clouds.10 mph87%30.33 "Hg4 mi
9:51 PM48 °FPassing clouds.9 mph87%30.33 "Hg4 mi
9:20 PM48 °FPassing clouds.8 mph87%30.33 "Hg4 mi
8:20 PM48 °FPassing clouds.6 mph87%30.33 "Hg4 mi
7:20 PM48 °FPassing clouds.7 mph82%30.33 "Hg4 mi
Weather by CustomWeather, © 2016

See weather overviewHow to use our weather pages